Location: Hiram
(41.3130°N, 81.1440°W)
Time: 19:28:12
(UTC-05:00)

Amateur Radio Satellites - All Passes

Search period start: 10 December 2017 18:58
Search period end: 11 December 2017 18:58
Location: Hiram, 41.3130°N, 81.1440°W

Satellite Date Start Highest point End Downlink Frequencies (MHz)
Time Altitude Azimuth
PCSat 10 Dec 19:06:19 19:10:52 28° 108° (ESE) 19:15:25 145.827
ZACube-1 10 Dec 19:10:12 19:13:53 32° 71° (ENE) 19:17:36 437.345
ISS 10 Dec 19:15:53 19:19:02 42° 29° (NNE) 19:22:11 437.550
STRAND 1 10 Dec 19:19:43 19:24:20 33° 97° (E) 19:28:54 437.568
XW-2A 10 Dec 19:32:31 19:35:50 74° 259° (W) 19:39:11 145.665 - 145.685
Oscar 11 10 Dec 19:37:39 19:41:39 39° 71° (ENE) 19:45:41 .
STARS 10 Dec 19:46:00 19:48:34 15° 297° (WNW) 19:51:07 437.465
AO-73 10 Dec 19:46:35 19:50:42 76° 76° (ENE) 19:54:50 145.935
SEEDS 10 Dec 19:47:44 19:51:14 25° 265° (W) 19:54:45 437.485
O/OREOS (USA 219) 10 Dec 19:53:18 19:57:38 48° 253° (WSW) 20:01:56 437.305
RS-15 10 Dec 19:53:35 20:02:47 23° 350° (N) 20:11:46 29.354- 29.394
CUBEBUG 2 10 Dec 20:02:29 20:05:27 18° 267° (W) 20:08:24 437.445
CUTE 1.7 + AOD 2 10 Dec 20:04:20 20:05:25 11° 271° (W) 20:06:29 437.475
UWE-3 10 Dec 20:11:15 20:14:43 25° 265° (W) 20:18:10 435.000/436.395/437.385
AAUSAT CUBESAT 2 10 Dec 20:20:54 20:24:19 24° 265° (W) 20:27:46 437.432
HO-68 10 Dec 20:22:28 20:26:52 17° 270° (W) 20:31:18 435.675
nSIGHT-1 10 Dec 20:27:20 20:30:11 29° 224° (SW) 20:33:01 .
DELFI C3 10 Dec 20:30:34 20:34:00 28° 70° (ENE) 20:37:29 145.870
FO-29 10 Dec 20:33:22 20:40:21 53° 98° (E) 20:46:29 435.910
EO-88 10 Dec 20:43:54 20:46:24 18° 68° (ENE) 20:48:54 145.990 - 145.960
ZACube-1 10 Dec 20:47:13 20:50:14 19° 267° (W) 20:53:16 437.345
PCSat 10 Dec 20:48:55 20:54:02 42° 306° (NW) 20:59:11 145.827
ISS 10 Dec 20:52:42 20:55:22 23° 226° (SW) 20:58:01 437.550
STRAND 1 10 Dec 20:59:03 21:03:23 29° 293° (WNW) 21:07:44 437.568
Oscar 11 10 Dec 21:15:00 21:17:56 18° 268° (W) 21:20:53 .
BEESAT 3 10 Dec 21:17:29 21:21:21 53° 118° (ESE) 21:25:16 437.485
TIGRISAT 10 Dec 21:27:33 21:30:52 21° 94° (E) 21:34:13 435.000
UNISAT 6 10 Dec 21:29:22 21:32:55 24° 95° (E) 21:36:30 437.425
Max Valier Satellite 10 Dec 21:37:21 21:40:57 62° 259° (W) 21:44:35 145.860
BEESAT 2 10 Dec 21:46:44 21:50:14 30° 114° (ESE) 21:53:47 435.950
PRISM 10 Dec 21:57:46 21:59:47 13° 92° (E) 22:01:48 437.425
DELFI C3 10 Dec 22:05:40 22:08:44 21° 266° (W) 22:11:49 145.870
RS-15 10 Dec 22:10:37 22:20:45 30° 26° (NNE) 22:30:24 29.354- 29.394
EO-88 10 Dec 22:16:39 22:19:49 28° 264° (W) 22:23:01 145.990 - 145.960
FO-29 10 Dec 22:18:57 22:24:55 29° 299° (WNW) 22:30:21 435.910
AO-85 10 Dec 22:25:21 22:28:10 19° 111° (ESE) 22:31:04 145.980
ESTCUBE 1 10 Dec 22:38:44 22:43:01 45° 72° (ENE) 22:47:20 437.505/2401.250
SPROUT 10 Dec 22:38:59 22:39:46 10° 61° (ENE) 22:40:32 437.525
BEESAT 3 10 Dec 22:56:30 22:59:11 17° 316° (NW) 23:01:52 437.485
VELOX 1 10 Dec 22:58:48 23:00:24 12° 61° (ENE) 23:01:59 145.980
LO-87 10 Dec 23:01:08 23:04:41 70° 259° (WSW) 23:08:13 145.935 - 145.965
TIGRISAT 10 Dec 23:03:44 23:07:36 33° 290° (WNW) 23:11:30 435.000
UNISAT 6 10 Dec 23:05:53 23:09:36 29° 291° (WNW) 23:13:22 437.425
BEESAT 2 10 Dec 23:24:29 23:27:55 26° 312° (NW) 23:31:24 435.950
POLYITAN 1 10 Dec 23:25:06 23:27:38 16° 92° (E) 23:30:11 437.675
PRISM 10 Dec 23:31:20 23:35:19 48° 288° (WNW) 23:39:15 437.425
AIST 2D 10 Dec 23:48:19 23:51:52 75° 283° (WNW) 23:55:24 435.315
FALCONSAT 3 10 Dec 23:49:04 23:50:44 13° 156° (SSE) 23:52:23 435.103
QB50P2 10 Dec 23:49:23 23:53:11 32° 97° (E) 23:56:59 145.880/145.840
DUCHIFAT 1 11 Dec 00:01:54 00:05:36 30° 97° (E) 00:09:18 145.980
SO-50 11 Dec 00:02:08 00:05:00 16° 40° (NE) 00:07:51 436.795
AO-85 11 Dec 00:04:37 00:08:15 36° 310° (NW) 00:12:05 145.980
DX 1 11 Dec 00:07:49 00:10:07 14° 62° (ENE) 00:12:24 434.975-435.025
SPROUT 11 Dec 00:10:46 00:15:01 75° 259° (WSW) 00:19:16 437.525
ESTCUBE 1 11 Dec 00:17:04 00:20:01 17° 268° (W) 00:23:00 437.505/2401.250
RS-15 11 Dec 00:23:41 00:35:36 76° 55° (NE) 00:46:48 29.354- 29.394
NANOSAT C BR1 11 Dec 00:25:23 00:29:35 67° 102° (ESE) 00:33:45 145.865
VELOX 1 11 Dec 00:31:45 00:36:13 74° 258° (WSW) 00:40:41 145.980
EO-79 11 Dec 00:37:41 00:41:53 77° 286° (WNW) 00:46:05 145.935-145.965
POLYITAN 1 11 Dec 00:59:36 01:03:37 43° 288° (WNW) 01:07:36 437.675
BUGSAT 1 11 Dec 00:59:59 01:03:34 30° 97° (E) 01:07:09 437.445
Oscar 19 11 Dec 01:10:08 01:14:23 25° 95° (E) 01:18:37 437.125/150
Gurwin Techsat 1B 11 Dec 01:17:15 01:21:17 22° 93° (E) 01:25:17 435.225
QB50P2 11 Dec 01:25:34 01:28:46 21° 293° (WNW) 01:31:58 145.880/145.840
FALCONSAT 3 11 Dec 01:26:01 01:29:12 28° 170° (S) 01:32:23 435.103
BEESAT 11 Dec 01:34:45 01:36:34 12° 60° (ENE) 01:38:22 436.000
UKube-1 11 Dec 01:35:04 01:39:22 73° 74° (ENE) 01:43:42 .
50 SAT 11 Dec 01:37:03 01:40:07 47° 260° (W) 01:43:13 437.505
DUCHIFAT 1 11 Dec 01:37:50 01:41:05 22° 293° (WNW) 01:44:21 145.980
SO-50 11 Dec 01:41:22 01:46:03 85° 238° (WSW) 01:50:47 436.795
DX 1 11 Dec 01:41:29 01:45:48 58° 259° (W) 01:50:08 434.975-435.025
MOZHAYETS 4 11 Dec 01:50:06 01:53:34 22° 66° (ENE) 01:57:03
ITUPSAT 1 11 Dec 01:58:12 02:01:38 20° 64° (ENE) 02:05:04 437.325
AO-91 11 Dec 02:01:23 02:04:59 80° 102° (ESE) 02:08:22 145.960
NANOSAT C BR1 11 Dec 02:03:22 02:04:42 11° 298° (WNW) 02:06:04 145.865
BUGSAT 1 11 Dec 02:35:43 02:38:43 21° 293° (WNW) 02:41:44 437.445
RS-15 11 Dec 02:37:24 02:46:48 30° 257° (WSW) 02:55:53 29.354- 29.394
Oscar 19 11 Dec 02:48:58 02:53:47 40° 291° (WNW) 02:58:36 437.125/150
Gurwin Techsat 1B 11 Dec 02:56:20 03:01:26 48° 290° (WNW) 03:06:31 435.225
AO-7 11 Dec 02:58:03 03:05:08 30° 96° (E) 03:12:10 .
CUBESAT XI-V 11 Dec 03:01:21 03:05:19 29° 68° (ENE) 03:09:19 437.345
FALCONSAT 3 11 Dec 03:04:35 03:07:50 31° 186° (S) 03:11:07 435.103
BEESAT 11 Dec 03:08:54 03:13:39 80° 257° (WSW) 03:18:26 436.000
MOZHAYETS 4 11 Dec 03:26:17 03:30:29 37° 263° (W) 03:34:43
YUBILEINY 11 Dec 03:27:58 03:36:34 61° 91° (E) 03:45:13 435.215
ITUPSAT 1 11 Dec 03:34:35 03:39:07 45° 261° (W) 03:43:41 437.325
ITAMSAT 1 11 Dec 03:51:33 03:56:32 45° 100° (E) 04:01:28 435.822/435.867
PCSat 11 Dec 03:53:33 03:58:03 26° 48° (NE) 04:02:32 145.827
M-CUBED/EXP-1 PRIME 11 Dec 04:08:50 04:13:27 88° 293° (WNW) 04:17:49 437.505
KKS-1 11 Dec 04:09:58 04:13:52 30° 69° (ENE) 04:17:47 437.445
CUBESAT XI-V 11 Dec 04:38:35 04:42:36 29° 265° (W) 04:46:40 437.345
FALCONSAT 3 11 Dec 04:44:00 04:46:23 16° 201° (SSW) 04:48:47 435.103
AO-7 11 Dec 04:50:06 04:58:19 63° 294° (WNW) 05:06:32 .
DOVE 4 11 Dec 05:03:50 05:08:17 46° 98° (E) 05:12:27 437.250
STARS 11 Dec 05:04:36 05:08:49 45° 72° (ENE) 05:13:01 437.465
XW-2F 11 Dec 05:25:42 05:26:45 11° 90° (E) 05:27:47 145.980 - 146.000
YUBILEINY 11 Dec 05:26:26 05:33:53 30° 292° (WNW) 05:41:27 435.215
ITAMSAT 1 11 Dec 05:31:41 05:35:40 23° 296° (WNW) 05:39:38 435.822/435.867
BEESAT 3 11 Dec 05:34:05 05:37:38 31° 50° (NE) 05:41:07 437.485
XW-2C 11 Dec 05:35:41 05:38:09 16° 93° (E) 05:40:37 145.795 - 145.815
PCSat 11 Dec 05:36:29 05:41:43 51° 246° (WSW) 05:46:55 145.827
M-CUBED/EXP-1 PRIME 11 Dec 05:45:41 05:47:00 11° 306° (NW) 05:48:20 437.505
KKS-1 11 Dec 05:46:42 05:50:23 25° 264° (W) 05:54:06 437.445
HO-68 11 Dec 06:01:02 06:04:59 15° 89° (E) 06:08:54 435.675
BEESAT 2 11 Dec 06:04:07 06:07:13 21° 45° (NE) 06:10:16 435.950
LilacSat-2 11 Dec 06:05:49 06:09:31 40° 98° (E) 06:13:11 437.200
CUTE 1.7 + AOD 2 11 Dec 06:12:06 06:13:19 11° 89° (E) 06:14:32 437.475
XW-2D 11 Dec 06:25:47 06:29:38 70° 102° (ESE) 06:33:27 145.860 - 145.880
CUTE-I 11 Dec 06:26:58 06:32:09 49° 100° (E) 06:37:16 437.470
STRAND 1 11 Dec 06:35:24 06:40:19 49° 71° (ENE) 06:45:14 437.568
XW-2B 11 Dec 06:41:30 06:45:22 78° 283° (WNW) 06:49:12 145.730 - 145.750
DOVE 4 11 Dec 06:42:32 06:45:32 17° 297° (WNW) 06:48:25 437.250
STARS 11 Dec 06:42:36 06:45:21 16° 267° (W) 06:48:08 437.465
FO-29 11 Dec 06:44:23 06:50:43 29° 61° (ENE) 06:57:09 435.910
KAITUO 1B 11 Dec 06:44:50 06:48:39 83° 102° (ESE) 06:52:26 145.475/437.950
AO-7 11 Dec 06:45:15 06:49:26 15° 315° (NW) 06:53:38 .
NUDT-PHONESAT 11 Dec 06:48:32 06:52:18 87° 102° (ESE) 06:56:03 437.300
AO-85 11 Dec 06:54:34 06:58:30 25° 47° (NE) 07:02:38 145.980
XW-2F 11 Dec 06:57:24 07:01:08 51° 286° (WNW) 07:04:51 145.980 - 146.000
XW-2C 11 Dec 07:08:55 07:12:26 34° 288° (WNW) 07:15:55 145.795 - 145.815
BEESAT 3 11 Dec 07:11:54 07:14:59 23° 247° (WSW) 07:18:02 437.485
SEEDS 11 Dec 07:30:23 07:34:34 51° 99° (E) 07:38:41 437.485
AO-73 11 Dec 07:35:21 07:37:47 15° 92° (E) 07:40:15 145.935
LilacSat-2 11 Dec 07:41:11 07:43:26 15° 294° (WNW) 07:45:40 437.200
BEESAT 2 11 Dec 07:41:18 07:45:05 40° 243° (WSW) 07:48:48 435.950
CUTE 1.7 + AOD 2 11 Dec 07:45:17 07:49:33 63° 285° (WNW) 07:53:46 437.475
HO-68 11 Dec 07:46:22 07:53:35 89° 101° (E) 08:00:45 435.675
CUBEBUG 2 11 Dec 07:51:04 07:55:18 86° 99° (E) 07:59:38 437.445
UWE-3 11 Dec 07:59:17 08:03:30 59° 100° (E) 08:07:49 435.000/436.395/437.385
AAUSAT CUBESAT 2 11 Dec 08:01:51 08:05:54 49° 99° (E) 08:09:55 437.432
NO-84 11 Dec 08:03:01 08:06:01 60° 135° (SE) 08:09:18 435.350 FM
CUTE-I 11 Dec 08:07:47 08:11:50 22° 297° (WNW) 08:15:51 437.470
STRAND 1 11 Dec 08:16:01 08:19:44 20° 267° (W) 08:23:27 437.568
XW-2A 11 Dec 08:26:11 08:29:37 71° 284° (WNW) 08:33:01 145.665 - 145.685
TIGRISAT 11 Dec 08:26:39 08:29:42 19° 66° (ENE) 08:32:44 435.000
O/OREOS (USA 219) 11 Dec 08:27:30 08:30:42 19° 101° (E) 08:33:54 437.305
FO-29 11 Dec 08:27:31 08:35:04 67° 260° (W) 08:42:57 435.910
UNISAT 6 11 Dec 08:28:29 08:31:49 22° 67° (ENE) 08:35:07 437.425
ZACube-1 11 Dec 08:33:27 08:37:46 74° 103° (ESE) 08:42:10 437.345
AO-85 11 Dec 08:34:27 08:39:06 49° 243° (WSW) 08:44:04 145.980
PRISM 11 Dec 08:48:15 08:49:14 11° 61° (ENE) 08:50:13 437.425
Oscar 11 11 Dec 09:00:15 09:04:37 83° 100° (E) 09:08:59 .
SEEDS 11 Dec 09:07:27 09:09:47 15° 296° (WNW) 09:12:06 437.485
Max Valier Satellite 11 Dec 09:08:45 09:10:07 12° 91° (E) 09:11:28 145.860
AO-73 11 Dec 09:10:05 09:14:15 49° 286° (WNW) 09:18:30 145.935
HO-68 11 Dec 09:35:44 09:40:22 19° 305° (NW) 09:45:01 435.675
UWE-3 11 Dec 09:37:29 09:39:30 13° 296° (WNW) 09:41:31 435.000/436.395/437.385
AAUSAT CUBESAT 2 11 Dec 09:38:37 09:40:55 15° 295° (WNW) 09:43:13 437.432
NO-84 11 Dec 09:41:10 09:43:35 19° 335° (NNW) 09:46:08 435.350 FM
DELFI C3 11 Dec 09:41:12 09:45:01 45° 99° (E) 09:48:46 145.870
EO-88 11 Dec 09:44:54 09:47:48 22° 95° (E) 09:50:41 145.990 - 145.960
TIGRISAT 11 Dec 10:02:06 10:06:08 37° 262° (W) 10:10:07 435.000
UNISAT 6 11 Dec 10:04:26 10:08:20 32° 263° (W) 10:12:13 437.425
O/OREOS (USA 219) 11 Dec 10:05:24 10:09:45 42° 297° (WNW) 10:14:08 437.305
ZACube-1 11 Dec 10:12:18 10:13:27 11° 298° (WNW) 10:14:36 437.345
POLYITAN 1 11 Dec 10:18:35 10:20:23 13° 63° (ENE) 10:22:10 437.675
FO-29 11 Dec 10:19:00 10:21:26 12° 278° (W) 10:23:52 435.910
PRISM 11 Dec 10:19:45 10:23:53 71° 257° (WSW) 10:28:03 437.425
AIST 2D 11 Dec 10:22:10 10:25:21 34° 73° (ENE) 10:28:35 435.315
Max Valier Satellite 11 Dec 10:40:34 10:44:09 45° 286° (WNW) 10:47:43 145.860
QB50P2 11 Dec 10:42:03 10:45:28 25° 68° (ENE) 10:48:54 145.880/145.840
DUCHIFAT 1 11 Dec 10:53:47 10:57:03 23° 68° (ENE) 11:00:20 145.980
NANOSAT C BR1 11 Dec 11:17:04 11:21:04 47° 73° (ENE) 11:25:05 145.865
DELFI C3 11 Dec 11:17:14 11:19:21 14° 295° (WNW) 11:21:27 145.870
EO-88 11 Dec 11:18:24 11:21:21 23° 290° (WNW) 11:24:17 145.990 - 145.960
EO-79 11 Dec 11:29:31 11:33:42 77° 75° (ENE) 11:37:54 145.935-145.965
BUGSAT 1 11 Dec 11:49:51 11:53:01 22° 68° (ENE) 11:56:10 437.445
POLYITAN 1 11 Dec 11:51:30 11:55:38 59° 259° (W) 11:59:47 437.675
AIST 2D 11 Dec 11:56:57 11:58:39 13° 268° (W) 12:00:22 435.315
SPROUT 11 Dec 11:57:06 11:59:59 18° 93° (E) 12:02:51 437.525
ISS 11 Dec 11:57:48 11:58:59 12° 129° (SE) 12:00:10 437.550
LO-87 11 Dec 12:00:53 12:04:21 55° 285° (WNW) 12:07:48 145.935 - 145.965
ESTCUBE 1 11 Dec 12:07:22 12:11:56 82° 285° (WNW) 12:16:28 437.505/2401.250
QB50P2 11 Dec 12:17:33 12:21:09 27° 264° (W) 12:24:44 145.880/145.840
VELOX 1 11 Dec 12:22:23 12:25:40 20° 94° (E) 12:28:56 145.980
Oscar 19 11 Dec 12:26:50 12:31:30 37° 68° (ENE) 12:36:12 437.125/150
DUCHIFAT 1 11 Dec 12:28:55 12:32:34 29° 264° (W) 12:36:13 145.980
Gurwin Techsat 1B 11 Dec 12:38:05 12:42:51 35° 68° (ENE) 12:47:39 435.225
NANOSAT C BR1 11 Dec 12:54:48 12:57:01 14° 268° (W) 12:59:14 145.865
AO-91 11 Dec 12:56:46 13:01:50 68° 75° (ENE) 13:06:28 145.960
NO-84 11 Dec 12:58:43 13:00:43 14° 18° (NNE) 13:02:47 435.350 FM
nSIGHT-1 11 Dec 13:03:43 13:06:54 72° 142° (SE) 13:10:07 .
M-CUBED/EXP-1 PRIME 11 Dec 13:22:11 13:24:08 13° 55° (NE) 13:26:07 437.505
UKube-1 11 Dec 13:24:07 13:25:36 12° 91° (E) 13:27:05 .
BUGSAT 1 11 Dec 13:24:41 13:28:13 28° 263° (W) 13:31:45 437.445
DX 1 11 Dec 13:30:02 13:33:30 23° 95° (E) 13:36:56 434.975-435.025
ISS 11 Dec 13:31:44 13:35:01 80° 324° (NW) 13:38:19 437.550
SPROUT 11 Dec 13:32:04 13:36:00 38° 289° (WNW) 13:39:56 437.525
YUBILEINY 11 Dec 13:38:33 13:46:06 30° 68° (ENE) 13:53:32 435.215
AO-7 11 Dec 13:56:56 14:04:33 42° 61° (ENE) 14:12:12 .
VELOX 1 11 Dec 13:58:09 14:02:12 36° 290° (WNW) 14:06:13 145.980
Oscar 19 11 Dec 14:06:35 14:10:52 27° 265° (W) 14:15:11 437.125/150
Gurwin Techsat 1B 11 Dec 14:18:10 14:22:47 30° 264° (W) 14:27:26 435.225
50 SAT 11 Dec 14:24:53 14:28:00 60° 285° (WNW) 14:31:06 437.505
NO-84 11 Dec 14:35:00 14:38:44 47° 37° (NE) 14:42:42 435.350 FM
AO-91 11 Dec 14:36:04 14:38:31 14° 268° (W) 14:40:53 145.960
nSIGHT-1 11 Dec 14:40:50 14:43:23 21° 340° (NNW) 14:45:57 .
RS-15 11 Dec 14:45:38 14:57:10 50° 110° (ESE) 15:08:39 29.354- 29.394
M-CUBED/EXP-1 PRIME 11 Dec 14:53:37 14:57:47 75° 252° (WSW) 15:02:18 437.505
UKube-1 11 Dec 14:57:44 15:02:00 61° 287° (WNW) 15:06:14 .
DX 1 11 Dec 15:05:50 15:09:41 31° 291° (WNW) 15:13:31 434.975-435.025
ITAMSAT 1 11 Dec 15:09:20 15:14:31 72° 73° (ENE) 15:19:44 435.822/435.867
BEESAT 11 Dec 15:09:22 15:13:17 25° 95° (E) 15:17:11 436.000
ISS 11 Dec 15:09:28 15:11:54 19° 343° (NNW) 15:14:21 437.550
MOZHAYETS 4 11 Dec 15:20:37 15:25:06 49° 99° (E) 15:29:34
ITUPSAT 1 11 Dec 15:34:40 15:39:14 44° 99° (E) 15:43:47 437.325
YUBILEINY 11 Dec 15:34:47 15:43:26 61° 269° (W) 15:51:59 435.215
AO-7 11 Dec 15:49:23 15:57:12 46° 260° (W) 16:05:08 .
SO-50 11 Dec 15:56:02 15:59:53 29° 114° (ESE) 16:03:46 436.795
DOVE 4 11 Dec 16:07:51 16:12:58 51° 72° (ENE) 16:17:59 437.250
NO-84 11 Dec 16:12:36 16:15:52 24° 232° (SW) 16:19:16 435.350 FM
CUTE-I 11 Dec 16:13:09 16:14:50 11° 57° (ENE) 16:16:31 437.470
nSIGHT-1 11 Dec 16:18:52 16:20:30 13° 0° (N) 16:22:09 .
HO-68 11 Dec 16:31:52 16:35:05 14° 50° (NE) 16:38:16 435.675
CUBESAT XI-V 11 Dec 16:34:04 16:38:47 69° 101° (ESE) 16:43:28 437.345
BEESAT 11 Dec 16:46:47 16:51:04 34° 292° (WNW) 16:55:21 436.000
ISS 11 Dec 16:47:32 16:49:21 14° 4° (N) 16:51:10 437.550
LilacSat-2 11 Dec 16:48:06 16:50:57 20° 68° (ENE) 16:53:49 437.200
ITAMSAT 1 11 Dec 16:51:53 16:54:28 14° 270° (W) 16:57:05 435.822/435.867
RS-15 11 Dec 16:57:32 17:09:35 56° 313° (NW) 17:21:32 29.354- 29.394
MOZHAYETS 4 11 Dec 16:58:48 17:01:51 18° 296° (WNW) 17:04:55
XW-2D 11 Dec 17:06:50 17:10:12 32° 71° (ENE) 17:13:36 145.860 - 145.880
ITUPSAT 1 11 Dec 17:13:14 17:16:44 21° 296° (WNW) 17:20:13 437.325
XW-2B 11 Dec 17:22:16 17:25:53 47° 74° (ENE) 17:29:33 145.730 - 145.750
KAITUO 1B 11 Dec 17:24:25 17:27:50 35° 72° (ENE) 17:31:17 145.475/437.950
NUDT-PHONESAT 11 Dec 17:27:12 17:30:35 35° 72° (ENE) 17:33:59 437.300
SO-50 11 Dec 17:36:15 17:40:15 32° 312° (NW) 17:44:20 436.795
KKS-1 11 Dec 17:36:28 17:40:52 59° 101° (ESE) 17:45:12 437.445
XW-2F 11 Dec 17:37:27 17:41:11 70° 75° (ENE) 17:44:58 145.980 - 146.000
DOVE 4 11 Dec 17:46:57 17:50:50 20° 268° (W) 17:54:41 437.250
CUTE-I 11 Dec 17:48:38 17:54:00 81° 75° (ENE) 17:59:24 437.470
XW-2C 11 Dec 17:49:16 17:53:02 75° 260° (W) 17:56:50 145.795 - 145.815
nSIGHT-1 11 Dec 17:55:00 17:57:37 22° 21° (NNE) 18:00:12 .
CUBESAT XI-V 11 Dec 18:13:15 18:15:33 14° 298° (WNW) 18:17:50 437.345
HO-68 11 Dec 18:14:22 18:21:28 67° 70° (ENE) 18:28:36 435.675
SEEDS 11 Dec 18:21:47 18:25:36 34° 71° (ENE) 18:29:27 437.485
LilacSat-2 11 Dec 18:21:47 18:25:02 27° 264° (W) 18:28:20 437.200
ISS 11 Dec 18:23:46 18:26:39 27° 24° (NNE) 18:29:31 437.550
STARS 11 Dec 18:29:40 18:34:02 88° 104° (ESE) 18:38:23 437.465
AO-73 11 Dec 18:32:23 18:33:36 11° 63° (ENE) 18:34:49 145.935
O/OREOS (USA 219) 11 Dec 18:36:08 18:40:18 36° 61° (ENE) 18:44:26 437.305
PCSat 11 Dec 18:36:15 18:40:08 20° 106° (ESE) 18:44:00 145.827
CUTE 1.7 + AOD 2 11 Dec 18:37:16 18:41:30 88° 82° (E) 18:45:48 437.475
XW-2D 11 Dec 18:41:56 18:44:26 17° 267° (W) 18:46:57 145.860 - 145.880
STRAND 1 11 Dec 18:47:00 18:50:09 16° 91° (E) 18:53:15 437.568
CUBEBUG 2 11 Dec 18:48:52 18:53:06 69° 75° (ENE) 18:57:16 437.445
